Weather History for Abilene, TX

Change the Weather History Date:

Thursday, November 25, 2010

  Actual Average Record
Temperature  
Mean Temperature 48 °F 51 °F  
Max Temperature 65 °F 62 °F 90 °F (1965)
Min Temperature 31 °F 39 °F 23 °F (1993)
Degree Days  
Heating Degree Days 17 15  
Month to date heating degree days 187 251  
Since 1 July heating degree days 231 355  
Cooling Degree Days 0 0  
Month to date cooling degree days 22 15  
Year to date cooling degree days 2664 2404  
Moisture  
Dew Point 24 °F    
Average Humidity 51    
Maximum Humidity 84    
Minimum Humidity 18    
Precipitation  
Precipitation 0.00 in 0.04 in 1.43 in (1986)
Month to date precipitation 0.15 1.22  
Year to date precipitation 26.59 23.40  
Sea Level Pressure  
Sea Level Pressure 29.94 in    
Wind  
Wind Speed 13 mph (North)    
Max Wind Speed 26 mph    
Max Gust Speed 33 mph    
Visibility 10 miles    
Events      
T = Trace of Precipitation, MM = Missing Value Source: NWS Daily Summary

Daily Weather History Graph

Daily Weather History Graph

Search for Another Location

Airport:

Trip Planner

Search our weather history database for the weather conditions in past years. The results will help you decide how hot, cold, wet, or windy it might be!

Date:

Astronomy

Nov. 25, 2010 Rise Set
Actual Time 7:17 AM CST 5:34 PM CST
Civil Twilight 6:50 AM CST 6:00 PM CST
Nautical Twilight 6:20 AM CST 6:30 PM CST
Astronomical Twilight 5:51 AM CST 7:00 PM CST
Moon 9:31 PM CST (11/25) 10:48 AM CST (11/25)
Length of Visible Light 11h 10m
Length of Day
10h 16m
Waning Gibbous, 82% of the Moon is Illuminated
Nov 25
Waning Gibbous
Nov 28
Last Quarter
Dec 5
New
Dec 13
First Quarter
Dec 21
Full

Hourly Weather History & Observations

Time (CST) Temp. Windchill Dew Point Humidity Pressure Visibility Wind Dir Wind Speed Gust Speed Precip Events Conditions
12:52 AM 64.0 °F - 55.9 °F 75% 29.64 in 10.0 mi SSE 5.8 mph - N/A   Clear
1:52 AM 64.9 °F - 57.0 °F 75% 29.65 in 10.0 mi SE 3.5 mph - N/A   Clear
2:52 AM 63.0 °F - 57.0 °F 81% 29.66 in 10.0 mi Calm Calm - N/A   Mostly Cloudy
3:17 AM 60.8 °F - 55.4 °F 82% 29.72 in 10.0 mi SE 4.6 mph - N/A   Scattered Clouds
3:52 AM 60.1 °F - 55.9 °F 86% 29.65 in 10.0 mi South 4.6 mph - N/A   Mostly Cloudy
4:30 AM 51.8 °F - 39.2 °F 62% 29.77 in 10.0 mi North 20.7 mph 27.6 mph N/A   Overcast
4:52 AM 48.0 °F - 37.0 °F 66% 29.74 in 10.0 mi North 23.0 mph - N/A   Overcast
5:06 AM 46.4 °F 38.1 °F 35.6 °F 66% 29.81 in 10.0 mi North 24.2 mph 33.4 mph N/A   Overcast
5:41 AM 44.6 °F 35.9 °F 33.8 °F 66% 29.84 in 10.0 mi North 23.0 mph - N/A   Overcast
5:52 AM 43.0 °F 34.8 °F 33.1 °F 68% 29.82 in 10.0 mi North 18.4 mph - N/A   Overcast
6:52 AM 39.9 °F 30.5 °F 28.9 °F 65% 29.86 in 10.0 mi North 19.6 mph 28.8 mph N/A   Overcast
7:52 AM 37.0 °F 26.2 °F 26.1 °F 65% 29.91 in 10.0 mi North 21.9 mph 28.8 mph N/A   Overcast
8:52 AM 36.0 °F 25.3 °F 24.1 °F 62% 29.94 in 10.0 mi North 19.6 mph - N/A   Overcast
9:52 AM 36.0 °F 25.0 °F 21.0 °F 55% 29.98 in 10.0 mi North 20.7 mph 27.6 mph N/A   Overcast
10:11 AM 35.6 °F 25.5 °F 19.4 °F 52% 30.00 in 10.0 mi North 17.3 mph 26.5 mph N/A   Overcast
10:38 AM 35.6 °F 26.2 °F 17.6 °F 48% 30.00 in 10.0 mi North 15.0 mph 25.3 mph N/A   Overcast
10:52 AM 37.0 °F 27.4 °F 18.0 °F 46% 29.98 in 10.0 mi North 17.3 mph 21.9 mph N/A   Overcast
11:52 AM 37.9 °F 28.9 °F 14.0 °F 38% 29.99 in 10.0 mi North 16.1 mph 25.3 mph N/A   Overcast
12:08 PM 39.2 °F 29.6 °F 14.0 °F 36% 30.00 in 10.0 mi North 19.6 mph 26.5 mph N/A   Overcast
12:52 PM 42.1 °F 32.6 °F 12.9 °F 31% 29.97 in 10.0 mi North 23.0 mph 29.9 mph N/A   Overcast
1:52 PM 44.1 °F 35.4 °F 10.9 °F 26% 29.96 in 10.0 mi North 21.9 mph 26.5 mph N/A   Clear
2:52 PM 45.0 °F 37.4 °F 10.0 °F 24% 29.97 in 10.0 mi North 18.4 mph 25.3 mph N/A   Clear
3:52 PM 45.0 °F 38.5 °F 3.9 °F 18% 30.01 in 10.0 mi NNE 13.8 mph 26.5 mph N/A   Clear
4:52 PM 44.1 °F 37.7 °F 5.0 °F 20% 30.05 in 10.0 mi NNE 12.7 mph 20.7 mph N/A   Clear
5:52 PM 41.0 °F 35.2 °F 6.1 °F 24% 30.09 in 10.0 mi North 9.2 mph - N/A   Clear
6:52 PM 37.9 °F 30.9 °F 9.0 °F 30% 30.12 in 10.0 mi North 10.4 mph - N/A   Clear
7:52 PM 36.0 °F 28.5 °F 9.0 °F 33% 30.16 in 10.0 mi North 10.4 mph - N/A   Clear
8:52 PM 34.0 °F - 9.0 °F 35% 30.17 in 10.0 mi North - - N/A   Clear
9:52 PM 33.1 °F 24.4 °F 9.0 °F 37% 30.20 in 10.0 mi NNE 11.5 mph - N/A   Clear
10:52 PM 32.0 °F 25.6 °F 9.0 °F 38% 30.23 in 10.0 mi North 6.9 mph - N/A   Clear
11:52 PM 30.9 °F 24.3 °F 10.0 °F 42% 30.25 in 10.0 mi North 6.9 mph - N/A   Clear